Regional Weather Roundup
Issued by NWS Wakefield, VA

Home | Current Version | Previous Version | Text Only | Print | Product List | Glossary Off
Versions: 1 2 3 4 5 6 7 8 9 10 11 12 13 14 15 16 17 18 19 20 21 22 23 24 25 26 27 28 29 30 31 32 33 34 35 36 37 38 39 40 41 42 43 44 45 46 47 48 49 50

000
ASUS41 KAKQ 312210
RWRAKQ

REGIONAL WEATHER ROUNDUP
NATIONAL WEATHER SERVICE WAKEFIELD VA
500 PM EST SAT JAN 31 2015

Note: "fair" indicates few or no clouds below 12,000 feet with no
significant weather and/or obstructions to visibility. * = Denotes
station may not report precipitation (e.g., rain,snow,etc.),
thunder or fog.

VAZ042-051-052>054-056-312300-
NORTHERN VIRGINIA

CITY           SKY/WX    TMP DP  RH WIND       PRES   REMARKS
WASH NATIONAL  PTCLDY    35   8  32 NW8       30.28S
DULLES         PTCLDY    33  10  38 NW7       30.26R
FORT BELVOIR   CLEAR     35   8  33 NW6       30.28R
QUANTICO       CLEAR     36   7  29 CALM      30.29R
FREDERICKSBRG* CLEAR     38   4  23 CALM      30.26S
STAFFORD*      CLEAR     36  -1  21 CALM      30.30S
WARRENTON      CLEAR     37  13  37 CALM      30.25S
CULPEPER*      CLEAR     37   3  23 CALM      30.26R
MANASSAS*      CLEAR     36   9  32 W5        30.27S
LEESBURG*      CLEAR     34  14  44 CALM      30.26S
WINCHESTER     CLEAR     34   5  29 NW10      30.22S
FRONT ROYAL*   FAIR      36   7  30 CALM      30.21S
LURAY*         FAIR      39   9  28 S3        30.22R
$$

VAZ048-049-060>072-079>083-312300-
CENTRAL AND SOUTH CENTRAL VIRGINIA

CITY           SKY/WX    TMP DP  RH WIND       PRES   REMARKS
RICHMOND       MOCLDY    41   3  20 W7        30.27S
CHESTERFIELD*  FAIR      39   3  22 SW3       30.27S
PETERSBURG*    CLEAR     42   1  17 W3        30.28R
HANOVER        CLEAR     39   3  22 W8        30.28R
TAPPAHANNOCK*  CLEAR     38  -4  16 W5        30.28S
QUINTON*       FAIR      39   4  23 W5        30.27S
CHARLOTTSVILLE CLEAR     40   3  21 SE7       30.22S
GORDONSVILLE*  FAIR      39   3  22 SW3       30.23S
ORANGE*        CLEAR     39   5  24 CALM      30.26R
LOUISA*        CLEAR     39   3  22 CALM      30.23S
BUMPASS*       FAIR      39   2  21 W3        30.24S
FARMVILLE*     PTCLDY    45   2  17 SW6       30.23S
CREWE*         FAIR      41   1  18 S3        30.25S
FORT PICKETT*  FAIR      38   5  25 SW5       30.25F
CHASE CITY*    FAIR      46  12  25 CALM      30.26S
CLARKSVILLE*   FAIR      43  10  26 SW3       30.26F
SOUTH HILL*    PTCLDY    42   7  23 W5        30.33R
LAWRENCEVILLE* FAIR      42   7  23 W3        30.27S
EMPORIA*       CLEAR     41   7  24 SW6       30.30R
$$

VAZ088>098-312300-
SOUTHEAST VIRGINIA

CITY           SKY/WX    TMP DP  RH WIND       PRES   REMARKS
NORFOLK        CLEAR     38   5  25 NW8       30.28R
VIRGINIA BEACH PTCLDY    38   7  27 NW8       30.28R
NORFOLK NAVAL  PTCLDY    41   8  25 W8        30.29R
WEST POINT*    CLEAR     39   0  19 W5        30.29F
SALUDA*        FAIR      35  10  35 W5        30.27S
NEWPORT NEWS   CLEAR     40   6  24 W8        30.28S
LANGLEY AFB    CLEAR     37   6  27 NW9       30.27S
FORT EUSTIS    CLEAR     37  14  39 N5        30.26S
WILLIAMSBURG*    N/A     43  10  26 NW8       30.29R
HR EXEC AP*    FAIR      37   7  28 NW3       30.31R
FRANKLIN*      CLEAR     40   7  25 W6        30.29R
WAKEFIELD      CLEAR     41   6  23 W5        30.28R
$$

VAZ020-022-025-037-045-312300-
WEST CENTRAL AND SOUTHWEST VIRGINIA

CITY           SKY/WX    TMP DP  RH WIND       PRES   REMARKS
STAUNTON*      CLEAR     39   4  23 N3        30.22S
WAYNESBORO*    FAIR      40   4  21 SW6       30.19R
HOT SPRINGS VA CLEAR     30  -4  23 W14G20    30.10R WCI  19
LYNCHBURG      CLEAR     43   0  16 MISG      30.24R
DANVILLE       CLEAR     44   7  21 W5        30.27S
SOUTH BOSTON*  FAIR      45   2  17 SW5       30.26F
MARTINSVILLE   CLEAR     46   1  15 SW5       30.26F
ROANOKE        MOCLDY    44   2  17 W10       30.25S
BLACKSBURG     PTCLDY    37   2  23 W5        30.25R
DUBLIN*        CLEAR     39   7  26 W3        30.24S
MARION*        PTCLDY    39   9  29 W12       30.25F
HILLSVILLE*    PTCLDY    39   2  21 W8        30.21S
RICHLANDS*     FAIR      36   9  33 CALM      30.23F
WISE*          MOCLDY    39  12  33 SW6       30.24S
ABINGDON*      PTCLDY    41   8  25 W7        30.27S
$$

MDZ021>025-VAZ099-100-312300-
SOUTHERN MARYLAND AND THE DELMARVA PENINSULA

CITY           SKY/WX    TMP DP  RH WIND       PRES   REMARKS
PATUXENT RIVER PTCLDY    32   5  32 W12       30.27R WCI  23
BAY BRIDGE APT   N/A     32   5  32 W12       30.27S WCI  23
LEONARDTOWN    CLEAR     32   5  32 W9        30.28S
DOVER          CLEAR     29   6  38 NW16G26   30.23R WCI  17
GEORGETOWN     CLEAR     29   6  38 W12G21    30.24R WCI  19
EASTON         CLEAR     30  10  43 NW7       30.29S
CAMBRIDGE      CLEAR     32   7  34 NW9G16    30.27R
SALISBURY      CLEAR     32   6  33 W14G23    30.24R WCI  22
OCEAN CITY     CLEAR     30   7  37 NW9G17    30.23R
WALLOPS ISLAND CLEAR     30   8  39 NW14G25   30.25R WCI  19
ACCOMACK*      CLEAR     32  10  40 NW14G25   30.26S WCI  22
$$

NCZ012>017-030>032-312300-
NORTH CENTRAL AND EASTERN NORTH CAROLINA

CITY           SKY/WX    TMP DP  RH WIND       PRES   REMARKS
ROANOKE RAPIDS FAIR      45  10  24 W6        30.29R
RALEIGH        PTCLDY    46   7  20 W3        30.29R
ELIZABETH CITY CLEAR     38   9  30 NW9       30.29S
AHOSKIE*       PTCLDY    41   8  25 CALM      30.30R
EDENTON*       CLEAR     42  11  28 NW5       30.29R
CURRITUCK*     CLEAR     40   4  22 W7        30.29R
KILL DEVIL HLS CLEAR     37  12  35 W7        30.27S
MANTEO         CLEAR     37  12  35 NW8       30.29S
CAPE HATTERAS  CLEAR     38  14  37 NW6       30.30S
TARBORO*       FAIR      45   9  22 W5        30.31R
GOLDSBORO      CLEAR     46  10  22 CALM      30.29F
WASHINGTON     CLEAR     43  10  25 CALM      30.31R
GREENVILLE     CLEAR     45  10  24 W3        30.31R
NEW BERN       CLEAR     46  11  24 W7        30.32S
WILMINGTON     CLEAR     48  10  21 W8        30.32S
$$

VAZ048-312300-
ELSEWHERE

CITY           SKY/WX    TMP DP  RH WIND       PRES   REMARKS
HARRISBURG PA  PTCLDY    25   8  48 W7        30.22F
BALTIMORE      PTCLDY    30   6  36 W7        30.25S
ANNAPOLIS      CLEAR     31   6  35 W7        30.26S
ANDREWS AFB    CLEAR     31   8  38 NW10      30.25S WCI  22
PHILADELPHIA   CLEAR     28   5  37 W16       30.22R WCI  16
HENDERSON NC   CLEAR     43   2  18 CALM      30.27F
GREENSBORO     MOCLDY    47   3  16 W7        30.25F
ROCKY MOUNT    CLEAR     45  10  24 W6        30.30R
$$

VAZ100-312300-
MARINE

STATION/POSITION TIME  TEMP    WIND        PRES    WAVE   SWELL
                       AIR SEA DIR/SP/G            HT/PER HT/PER
                 (UTC) (F)     (DEG/KT/KT) (MB)    (FT/S) (FT/S)
BRANDYWINE LGT   2200   29 35  320/ 20/ 27 1023.0S
CAPE MAY NJ      2200   28 33              1022.7R
LEWES DE         2200   29 32  290/ 20/ 24 1023.3R
15NM E FENWICK I 2200   31 39              1022.4R   4/ 5
OCEAN-CITY-INLET 2200   30 37  320/ 18/ 25 1023.1R
WACHAPREAGUE VA  2200   33 34  290/  2/ 11 1024.6S
THOMAS POINT MD  2200   31 35  290/ 12/ 14 1025.9R
GOOSES REEF MD   2200   33     VRB 12/ 16  1024.0S
COVE POINT MD    2200   31     330/  8/ 12 1024.8R
SOLOMONS ISLAND  2200      36                N/A
BISHOPS HEAD MD  2200   31 32  320/ 12/ 15 1024.5S
PINEY POINT MD   2200          320/ 12/ 13   N/A
POTOMAC MD       2200   33     330/ 14/ 16 1024.1S
CAMBRIDGE MD     2200   30 33  290/  9/ 14 1024.8R
LEWISETTA VA     2200   33 34  310/  4/  5 1025.0R
RAPPAHANNOCK LGT 2200          290/ 16/ 19 1025.3F
STINGRAY PT      2200   36     300/ 10/ 14 1025.4F
YORK RVR RNG VA  2200   38     310/ 10/ 11 1024.5S
YORKTOWN VA      2200   37 38  270/  6/  7 1025.0S
JAMESTOWN VA     2200   38     320/  6/  8   N/A
DOMINION TERM VA 2200   38     330/  9/ 12 1025.3R
KIPTOPEKE VA     2200      40  320/ 16/ 19   N/A
CHES BAY BRIDGE  2200   37 38  290/ 12/ 14 1024.9R
CAPE HENRY VA    2200   36     300/  8/  9 1023.9R
CHESAPEAKE LGHT  2100   35     310/ 20/ 23 1025.6F
WILLOUBY STN VA  2200   38     310/ 14/ 15 1025.7R
S CRANEY ISL VA  2200          330/  5/  8 1025.3R
CAPE HENRY BUOY  2200      42                N/A     4/ 4
1ST LANDING BUOY 2200   37     300/  8/ 10 1024.7S
CAPE CHARLES BUO 2200      40                N/A     3/ 8   2/ 8
OFFSHORE WE BUOY 2200      43                N/A     6/ 5   2/ 9
64NM E OF VA BCH 2200   36 48  310/ 25/ 29 1023.2R   9/ 9   5/ 9
DUCK PIER NC     2200   38 40  320/  8/ 12 1024.5R
44100 DUCK FRF   2200      43                N/A     5/ 7   2/11
44056 DUCK FRF   2200      41                N/A     4/ 8   2/11
OREGON INLET NC  2200   37 40  290/  8/ 13 1025.5R
HATTERAS NC      2200   39 40  290/  9/ 11 1026.3R


USA.gov is the U.S. government's official web portal to all federal, state and local government web resources and services.